Wetterdaten: aktuell Samstag, 21.05.2022 17:50
Datum Zeit Temp. A. Feuchte A. Luftdruck Regen Wind Richtung Richtung Windben
21.05.2022 17:50 25,9 C 58 % 1014,9 hPa 0,0 l/m 0,0 km/h N-NW 330 0,0 km/h
21.05.2022 17:45 25,9 C 58 % 1014,9 hPa 0,0 l/m 0,0 km/h N-NW 330 0,0 km/h
21.05.2022 17:40 25,9 C 57 % 1015,0 hPa 0,0 l/m 0,0 km/h N-NW 330 0,0 km/h
21.05.2022 17:35 25,7 C 53 % 1015,1 hPa 0,0 l/m 0,0 km/h N-NW 330 0,0 km/h
21.05.2022 17:30 25,2 C 60 % 1015,2 hPa 0,0 l/m 0,0 km/h N-NW 330 0,0 km/h
21.05.2022 17:25 24,8 C 63 % 1015,2 hPa 0,0 l/m 0,0 km/h N-NW 330 0,0 km/h
21.05.2022 17:20 24,6 C 57 % 1015,2 hPa 0,0 l/m 0,0 km/h N-NW 330 0,0 km/h
21.05.2022 17:15 24,6 C 63 % 1015,3 hPa 0,0 l/m 0,0 km/h N-NW 330 0,0 km/h
21.05.2022 17:10 24,3 C 60 % 1015,4 hPa 0,0 l/m 0,0 km/h N-NW 330 0,0 km/h
21.05.2022 17:05 24,3 C 57 % 1015,5 hPa 0,0 l/m 0,0 km/h N-NW 330 0,0 km/h
21.05.2022 17:00 24,6 C 58 % 1015,5 hPa 0,0 l/m 0,0 km/h N-NW 330 0,0 km/h
21.05.2022 16:55 24,8 C 59 % 1015,6 hPa 0,0 l/m 0,0 km/h S 175 0,0 km/h
21.05.2022 16:50 24,8 C 58 % 1015,6 hPa 0,0 l/m 0,0 km/h S 175 0,0 km/h
21.05.2022 16:45 24,8 C 54 % 1015,7 hPa 0,0 l/m 0,0 km/h S 175 0,0 km/h
21.05.2022 16:40 25,0 C 51 % 1015,7 hPa 0,0 l/m 0,0 km/h S 180 0,0 km/h
21.05.2022 16:35 25,2 C 54 % 1015,7 hPa 0,0 l/m 0,0 km/h S 189 0,0 km/h
21.05.2022 16:30 25,2 C 53 % 1015,6 hPa 0,0 l/m 0,0 km/h S 191 0,0 km/h
21.05.2022 16:25 25,3 C 54 % 1015,7 hPa 0,0 l/m 0,0 km/h S 191 0,0 km/h
21.05.2022 16:20 25,4 C 54 % 1015,6 hPa 0,0 l/m 0,0 km/h S-SW 197 0,0 km/h
21.05.2022 16:15 25,3 C 50 % 1015,7 hPa 0,0 l/m 0,0 km/h S-SO 162 0,0 km/h
21.05.2022 16:10 25,2 C 49 % 1015,8 hPa 0,0 l/m 0,0 km/h S-SO 167 0,0 km/h
21.05.2022 16:05 24,9 C 49 % 1015,9 hPa 0,0 l/m 0,0 km/h S 171 0,0 km/h
21.05.2022 16:00 24,9 C 48 % 1015,9 hPa 0,0 l/m 0,0 km/h SO 131 0,0 km/h
21.05.2022 15:55 24,7 C 46 % 1015,9 hPa 0,0 l/m 0,0 km/h SO 125 0,0 km/h
21.05.2022 15:50 24,3 C 47 % 1016,0 hPa 0,0 l/m 0,0 km/h W 264 0,0 km/h
21.05.2022 15:45 24,2 C 49 % 1016,1 hPa 0,0 l/m 0,0 km/h W 277 0,0 km/h
21.05.2022 15:40 24,4 C 52 % 1016,1 hPa 0,0 l/m 0,0 km/h SO 144 0,0 km/h
21.05.2022 15:35 24,7 C 53 % 1016,1 hPa 0,0 l/m 0,0 km/h W-SW 237 1,6 km/h
21.05.2022 15:30 25,0 C 48 % 1016,1 hPa 0,0 l/m 0,0 km/h NO 43 0,0 km/h
21.05.2022 15:25 25,1 C 47 % 1016,1 hPa 0,0 l/m 0,0 km/h O 89 0,0 km/h
21.05.2022 15:20 25,1 C 48 % 1016,2 hPa 0,0 l/m 0,0 km/h NO 48 0,0 km/h
21.05.2022 15:15 25,2 C 50 % 1016,2 hPa 0,0 l/m 0,0 km/h O-NO 72 0,0 km/h
21.05.2022 15:10 25,1 C 48 % 1016,2 hPa 0,0 l/m 0,0 km/h NO 50 0,0 km/h
21.05.2022 15:05 24,9 C 46 % 1016,3 hPa 0,0 l/m 0,0 km/h S 187 0,0 km/h
21.05.2022 15:00 24,7 C 50 % 1016,3 hPa 0,0 l/m 0,0 km/h SO 140 0,0 km/h
21.05.2022 14:55 24,4 C 48 % 1016,4 hPa 0,0 l/m 0,0 km/h O-NO 60 0,0 km/h
21.05.2022 14:50 24,1 C 51 % 1016,5 hPa 0,0 l/m 0,0 km/h O 83 0,0 km/h
21.05.2022 14:45 24,1 C 62 % 1016,5 hPa 0,0 l/m 0,0 km/h N 351 0,0 km/h
21.05.2022 14:40 24,2 C 69 % 1016,5 hPa 0,0 l/m 0,0 km/h N 351 0,0 km/h
21.05.2022 14:35 24,3 C 69 % 1016,6 hPa 0,0 l/m 0,0 km/h N 351 0,0 km/h
21.05.2022 14:30 24,6 C 63 % 1016,6 hPa 0,0 l/m 0,0 km/h N 351 0,0 km/h
21.05.2022 14:25 24,9 C 56 % 1016,7 hPa 0,0 l/m 0,0 km/h N 351 0,0 km/h
21.05.2022 14:20 25,1 C 57 % 1016,7 hPa 0,0 l/m 0,0 km/h N 351 0,0 km/h
21.05.2022 14:15 25,3 C 55 % 1016,7 hPa 0,0 l/m 0,0 km/h N 351 0,0 km/h
21.05.2022 14:10 25,6 C 60 % 1016,7 hPa 0,0 l/m 0,0 km/h S 177 0,0 km/h
21.05.2022 14:05 25,6 C 53 % 1016,6 hPa 0,0 l/m 0,0 km/h S 177 0,0 km/h
21.05.2022 14:00 25,6 C 60 % 1016,7 hPa 0,0 l/m 0,0 km/h S 177 0,0 km/h
21.05.2022 13:55 25,3 C 59 % 1016,7 hPa 0,0 l/m 0,0 km/h S 177 0,0 km/h
21.05.2022 13:50 25,3 C 56 % 1016,7 hPa 0,0 l/m 0,0 km/h S 177 0,0 km/h
21.05.2022 13:45 25,4 C 59 % 1016,7 hPa 0,0 l/m 0,0 km/h S 177 0,0 km/h
21.05.2022 13:40 25,2 C 60 % 1016,8 hPa 0,0 l/m 0,0 km/h S 178 0,0 km/h
21.05.2022 13:35 25,1 C 61 % 1016,8 hPa 0,0 l/m 0,0 km/h S 173 0,0 km/h
21.05.2022 13:30 24,9 C 60 % 1016,8 hPa 0,0 l/m 0,0 km/h S 181 0,0 km/h
21.05.2022 13:25 24,7 C 62 % 1016,9 hPa 0,0 l/m 0,0 km/h S 181 0,0 km/h
21.05.2022 13:20 24,7 C 58 % 1016,9 hPa 0,0 l/m 0,0 km/h S 175 0,0 km/h
21.05.2022 13:15 24,4 C 64 % 1017,0 hPa 0,0 l/m 0,0 km/h S 184 0,0 km/h
21.05.2022 13:10 24,1 C 65 % 1017,0 hPa 0,0 l/m 0,0 km/h S 184 0,0 km/h
21.05.2022 13:05 24,0 C 64 % 1017,0 hPa 0,0 l/m 0,0 km/h S 184 0,0 km/h
21.05.2022 13:00 24,2 C 64 % 1017,0 hPa 0,0 l/m 0,0 km/h S 175 0,0 km/h
21.05.2022 12:55 24,4 C 63 % 1017,1 hPa 0,0 l/m 0,0 km/h S 184 0,0 km/h
21.05.2022 12:50 24,6 C 62 % 1017,3 hPa 0,0 l/m 0,0 km/h S-SW 193 0,0 km/h
21.05.2022 12:45 24,6 C 67 % 1017,3 hPa 0,0 l/m 0,0 km/h S-SW 194 0,0 km/h
21.05.2022 12:40 24,3 C 65 % 1017,3 hPa 0,0 l/m 0,0 km/h S-SW 194 0,0 km/h
21.05.2022 12:35 24,2 C 66 % 1017,4 hPa 0,0 l/m 0,0 km/h S-SW 194 0,0 km/h
21.05.2022 12:30 24,1 C 67 % 1017,4 hPa 0,0 l/m 0,0 km/h S-SW 194 0,0 km/h
21.05.2022 12:25 23,9 C 66 % 1017,5 hPa 0,0 l/m 0,0 km/h S-SW 194 0,0 km/h
21.05.2022 12:20 23,8 C 64 % 1017,5 hPa 0,0 l/m 0,0 km/h S-SW 194 0,0 km/h
21.05.2022 12:15 23,8 C 66 % 1017,6 hPa 0,0 l/m 0,0 km/h S-SW 196 0,0 km/h
21.05.2022 12:10 23,7 C 68 % 1017,6 hPa 0,0 l/m 0,0 km/h S 184 0,0 km/h
21.05.2022 12:05 23,5 C 65 % 1017,5 hPa 0,0 l/m 0,0 km/h S 185 0,0 km/h
21.05.2022 12:00 23,3 C 69 % 1017,6 hPa 0,0 l/m 0,0 km/h S 178 0,0 km/h
21.05.2022 11:55 23,1 C 68 % 1017,7 hPa 0,0 l/m 0,0 km/h S 178 0,0 km/h
21.05.2022 11:50 22,8 C 68 % 1017,7 hPa 0,0 l/m 0,0 km/h S-SW 196 0,0 km/h
21.05.2022 11:45 22,7 C 66 % 1017,8 hPa 0,0 l/m 0,0 km/h S-SO 167 0,0 km/h
21.05.2022 11:40 22,7 C 65 % 1017,7 hPa 0,0 l/m 0,0 km/h S 179 0,0 km/h
21.05.2022 11:35 22,7 C 67 % 1017,7 hPa 0,0 l/m 0,0 km/h S 179 0,0 km/h
21.05.2022 11:30 22,7 C 68 % 1017,7 hPa 0,0 l/m 0,0 km/h S 188 0,0 km/h
21.05.2022 11:25 22,7 C 70 % 1017,6 hPa 0,0 l/m 0,0 km/h S 175 0,0 km/h
21.05.2022 11:20 22,7 C 70 % 1017,7 hPa 0,0 l/m 0,0 km/h S 175 0,0 km/h
21.05.2022 11:15 22,7 C 68 % 1017,7 hPa 0,0 l/m 0,0 km/h S 175 0,0 km/h
21.05.2022 11:10 22,8 C 69 % 1017,6 hPa 0,0 l/m 0,0 km/h S 175 0,0 km/h
21.05.2022 11:05 22,9 C 70 % 1017,6 hPa 0,0 l/m 0,0 km/h S-SO 160 0,0 km/h
21.05.2022 11:00 22,9 C 69 % 1017,5 hPa 0,0 l/m 0,0 km/h S-SO 160 0,0 km/h
21.05.2022 10:55 23,1 C 70 % 1017,6 hPa 0,0 l/m 0,0 km/h S-SO 162 0,0 km/h
21.05.2022 10:50 23,3 C 66 % 1017,5 hPa 0,0 l/m 0,0 km/h S-SO 162 0,0 km/h
21.05.2022 10:45 23,6 C 66 % 1017,6 hPa 0,0 l/m 0,0 km/h S-SO 162 0,0 km/h
21.05.2022 10:40 23,7 C 66 % 1017,6 hPa 0,0 l/m 0,0 km/h S 187 0,0 km/h
21.05.2022 10:35 23,6 C 68 % 1017,6 hPa 0,0 l/m 0,0 km/h S 187 0,0 km/h
21.05.2022 10:30 23,4 C 63 % 1017,5 hPa 0,0 l/m 0,0 km/h S 180 0,0 km/h
21.05.2022 10:25 23,4 C 65 % 1017,5 hPa 0,0 l/m 0,0 km/h S 172 0,0 km/h
21.05.2022 10:20 23,5 C 64 % 1017,6 hPa 0,0 l/m 0,0 km/h S-SO 151 0,0 km/h
21.05.2022 10:15 23,4 C 69 % 1017,7 hPa 0,0 l/m 0,0 km/h S-SW 206 0,0 km/h
21.05.2022 10:10 22,9 C 67 % 1017,6 hPa 0,0 l/m 0,0 km/h O-SO 108 1,6 km/h
21.05.2022 10:05 22,7 C 67 % 1017,7 hPa 0,0 l/m 0,0 km/h W-SW 258 1,6 km/h
21.05.2022 10:00 22,6 C 67 % 1017,6 hPa 0,0 l/m 0,0 km/h S-SW 198 1,6 km/h
21.05.2022 09:55 22,4 C 66 % 1017,7 hPa 0,0 l/m 0,0 km/h O-SO 116 0,0 km/h
21.05.2022 09:50 22,2 C 63 % 1017,6 hPa 0,0 l/m 0,1 km/h N 350 3,2 km/h
_ Min-Zeit 00:10 15:05 05:05 - 18:00 - - 18:00
Minimum _ 17,9 C 46 % 1014,5 hPa - 0,0 km/h - - 0,0 km/h
_ Max-Zeit 18:05 01:05 18:00 18:00 03:40 - - 03:40
Maximum _ 28,2 C 80 % 1019,2 hPa 0,0 l/m 44,4 km/h
N-NO
- - 66,0 km/h
N-NO
Durchschnitt _ 22,4 C 64 % 1017,1 hPa #0,0 l/m 7,6 km/h N - 11,9 km/h